GXA109 KMIA-KSRQ

Flight info

Callsign GXA109
Flight time 0h 46m
Altitude 20000
Route BNGOS4 COREA TUBBA CURSD
Aircraft A320/M-SDE3FGHIRWY/LB1

Departure

Time 2026-05-05 15:51
Airport Miami International Airport (KMIA)

Arrival

Time 2026-05-05 16:37
Airport Sarasota Bradenton International Airport (KSRQ)
Time Latitude Longitude Altitude Speed Heading
2026-05-05 15:19 25.79855 -80.28623 20 ft 0 kts 177°
2026-05-05 15:43 25.79867 -80.28623 20 ft 4 kts 177°
2026-05-05 15:43 25.79894 -80.28625 21 ft 4 kts 180°
2026-05-05 15:43 25.79921 -80.28622 20 ft 4 kts 199°
2026-05-05 15:43 25.79940 -80.28608 20 ft 4 kts 254°
2026-05-05 15:44 25.79942 -80.28597 19 ft 1 kts 268°
2026-05-05 15:44 25.79942 -80.28596 19 ft 0 kts 268°
2026-05-05 15:48 25.79941 -80.28612 21 ft 5 kts 269°
2026-05-05 15:48 25.79939 -80.28669 22 ft 11 kts 267°
2026-05-05 15:49 25.79934 -80.28798 22 ft 22 kts 268°
2026-05-05 15:49 25.79927 -80.28974 21 ft 24 kts 267°
2026-05-05 15:49 25.79919 -80.29164 21 ft 26 kts 267°
2026-05-05 15:49 25.79910 -80.29372 18 ft 28 kts 267°
2026-05-05 15:50 25.79901 -80.29600 14 ft 31 kts 268°
2026-05-05 15:50 25.79891 -80.29843 13 ft 32 kts 267°
2026-05-05 15:50 25.79970 -80.30060 13 ft 27 kts 294°
2026-05-05 15:50 25.80063 -80.30109 14 ft 15 kts 45°
2026-05-05 15:51 25.80078 -80.29964 12 ft 35 kts 87°
2026-05-05 15:51 25.80104 -80.29330 19 ft 126 kts 87°
2026-05-05 15:51 25.80156 -80.28112 233 ft 175 kts 86°
2026-05-05 15:51 25.80254 -80.26734 1087 ft 184 kts 84°
2026-05-05 15:52 25.80349 -80.25281 1993 ft 196 kts 84°
2026-05-05 15:52 25.80463 -80.23649 2172 ft 230 kts 83°
2026-05-05 15:52 25.80569 -80.21775 2606 ft 254 kts 86°
2026-05-05 15:52 25.80621 -80.19772 3428 ft 264 kts 87°
2026-05-05 15:53 25.80812 -80.17730 4418 ft 270 kts 70°
2026-05-05 15:53 25.81860 -80.16012 5245 ft 275 kts 36°
2026-05-05 15:53 25.83608 -80.15182 6069 ft 277 kts
2026-05-05 15:53 25.85538 -80.15061 6950 ft 279 kts 356°
2026-05-05 15:54 25.87490 -80.15190 7800 ft 283 kts 353°
2026-05-05 15:54 25.89440 -80.15510 8627 ft 284 kts 340°
2026-05-05 15:54 25.91280 -80.16315 9541 ft 285 kts 334°
2026-05-05 15:54 25.93149 -80.17121 10308 ft 295 kts 337°
2026-05-05 15:55 25.95151 -80.17937 10548 ft 317 kts 333°
2026-05-05 15:55 25.97143 -80.19160 10736 ft 338 kts 322°
2026-05-05 15:55 25.98899 -80.20906 11127 ft 348 kts 309°
2026-05-05 15:55 26.00271 -80.23131 11769 ft 350 kts 296°
2026-05-05 15:56 26.01229 -80.25623 12491 ft 352 kts 290°
2026-05-05 15:56 26.02139 -80.28156 13258 ft 354 kts 290°
2026-05-05 15:56 26.03058 -80.30698 14020 ft 356 kts 291°
2026-05-05 15:56 26.03986 -80.33261 14682 ft 358 kts 291°
2026-05-05 15:57 26.04918 -80.35842 15343 ft 361 kts 291°
2026-05-05 15:57 26.05857 -80.38439 16009 ft 363 kts 291°
2026-05-05 15:57 26.06799 -80.41050 16663 ft 365 kts 291°
2026-05-05 15:57 26.07746 -80.43677 17279 ft 367 kts 292°
2026-05-05 15:58 26.08697 -80.46318 17883 ft 369 kts 292°
2026-05-05 15:58 26.09655 -80.48976 18458 ft 371 kts 292°
2026-05-05 15:58 26.10615 -80.51650 18980 ft 373 kts 292°
2026-05-05 15:58 26.11581 -80.54339 19497 ft 375 kts 292°
2026-05-05 15:59 26.12553 -80.57039 19878 ft 377 kts 293°
2026-05-05 15:59 26.13741 -80.59632 20020 ft 377 kts 301°
2026-05-05 15:59 26.15299 -80.62053 20060 ft 393 kts 306°
2026-05-05 15:59 26.16991 -80.64519 20057 ft 405 kts 306°
2026-05-05 16:00 26.18706 -80.67015 20058 ft 408 kts 306°
2026-05-05 16:00 26.20433 -80.69527 20057 ft 409 kts 306°
2026-05-05 16:00 26.22137 -80.72009 20057 ft 409 kts 306°
2026-05-05 16:00 26.23861 -80.74528 20057 ft 409 kts 306°
2026-05-05 16:01 26.25582 -80.77049 20058 ft 409 kts 306°
2026-05-05 16:01 26.27302 -80.79573 20072 ft 409 kts 306°
2026-05-05 16:01 26.29021 -80.82096 20057 ft 408 kts 306°
2026-05-05 16:01 26.30739 -80.84617 20056 ft 408 kts 306°
2026-05-05 16:02 26.32459 -80.87137 20056 ft 408 kts 306°
2026-05-05 16:02 26.34180 -80.89657 20054 ft 408 kts 306°
2026-05-05 16:02 26.35913 -80.92165 20049 ft 409 kts 308°
2026-05-05 16:02 26.37901 -80.94437 20053 ft 410 kts 315°
2026-05-05 16:03 26.39979 -80.96613 20057 ft 410 kts 315°
2026-05-05 16:03 26.42056 -80.98788 20057 ft 409 kts 315°
2026-05-05 16:03 26.44132 -81.00964 20059 ft 409 kts 315°
2026-05-05 16:03 26.46208 -81.03142 20061 ft 410 kts 315°
2026-05-05 16:04 26.48278 -81.05317 20064 ft 409 kts 315°
2026-05-05 16:04 26.50355 -81.07502 20060 ft 409 kts 315°
2026-05-05 16:04 26.52400 -81.09653 20059 ft 409 kts 315°
2026-05-05 16:04 26.54473 -81.11831 20059 ft 409 kts 315°
2026-05-05 16:05 26.56540 -81.14005 20056 ft 409 kts 315°
2026-05-05 16:05 26.58609 -81.16186 20053 ft 409 kts 314°
2026-05-05 16:05 26.60676 -81.18370 20073 ft 409 kts 314°
2026-05-05 16:05 26.62746 -81.20560 20070 ft 409 kts 315°
2026-05-05 16:06 26.64934 -81.22597 20068 ft 410 kts 320°
2026-05-05 16:06 26.67214 -81.24517 20067 ft 410 kts 320°
2026-05-05 16:06 26.69492 -81.26427 20067 ft 410 kts 320°
2026-05-05 16:06 26.71782 -81.28346 20062 ft 410 kts 320°
2026-05-05 16:07 26.74064 -81.30262 20063 ft 410 kts 321°
2026-05-05 16:07 26.76345 -81.32178 20065 ft 410 kts 321°
2026-05-05 16:07 26.78623 -81.34096 20064 ft 410 kts 320°
2026-05-05 16:07 26.80894 -81.36013 20063 ft 410 kts 320°
2026-05-05 16:08 26.83142 -81.37916 20066 ft 410 kts 320°
2026-05-05 16:08 26.85408 -81.39838 20067 ft 409 kts 320°
2026-05-05 16:08 26.87679 -81.41764 20068 ft 409 kts 320°
2026-05-05 16:08 26.89982 -81.43713 20067 ft 409 kts 320°
2026-05-05 16:09 26.92224 -81.45610 20086 ft 409 kts 320°
2026-05-05 16:09 26.94493 -81.47533 20083 ft 409 kts 320°
2026-05-05 16:09 26.96759 -81.49458 20081 ft 409 kts 320°
2026-05-05 16:09 26.99030 -81.51383 20080 ft 408 kts 320°
2026-05-05 16:10 27.01297 -81.53302 20075 ft 408 kts 320°
2026-05-05 16:10 27.03564 -81.55223 20073 ft 408 kts 320°
2026-05-05 16:10 27.05830 -81.57144 20071 ft 408 kts 320°
2026-05-05 16:10 27.08092 -81.59063 20070 ft 409 kts 320°
2026-05-05 16:11 27.10360 -81.60987 20078 ft 409 kts 320°
2026-05-05 16:11 27.17118 -81.66762 20036 ft 406 kts 318°
2026-05-05 16:12 27.19123 -81.68933 19799 ft 397 kts 312°
2026-05-05 16:12 27.22903 -81.73401 19345 ft 393 kts 312°
2026-05-05 16:13 27.28532 -81.80050 18683 ft 390 kts 312°
2026-05-05 16:13 27.30407 -81.82254 18459 ft 390 kts 312°
2026-05-05 16:13 27.32280 -81.84453 18215 ft 389 kts 312°
2026-05-05 16:14 27.36020 -81.88838 17700 ft 388 kts 312°
2026-05-05 16:14 27.39736 -81.93217 17187 ft 386 kts 312°
2026-05-05 16:15 27.43437 -81.97585 16685 ft 385 kts 312°
2026-05-05 16:15 27.46932 -82.02060 16198 ft 382 kts 304°
2026-05-05 16:16 27.49399 -82.07329 15719 ft 380 kts 293°
2026-05-05 16:16 27.51517 -82.12783 15239 ft 379 kts 293°
2026-05-05 16:17 27.53635 -82.18221 14762 ft 378 kts 293°
2026-05-05 16:17 27.54336 -82.20021 14613 ft 378 kts 293°
2026-05-05 16:18 27.56439 -82.25447 14153 ft 377 kts 293°
2026-05-05 16:18 27.57486 -82.28157 13925 ft 377 kts 293°
2026-05-05 16:18 27.59572 -82.33567 13417 ft 376 kts 293°
2026-05-05 16:19 27.60612 -82.36266 13162 ft 375 kts 293°
2026-05-05 16:19 27.61651 -82.38963 12923 ft 374 kts 293°
2026-05-05 16:19 27.63717 -82.44329 12414 ft 371 kts 293°
2026-05-05 16:20 27.64544 -82.49644 11948 ft 321 kts 264°
2026-05-05 16:20 27.63043 -82.53987 11499 ft 289 kts 236°
2026-05-05 16:21 27.59954 -82.56804 10197 ft 292 kts 210°
2026-05-05 16:22 27.54628 -82.59956 8195 ft 282 kts 210°
2026-05-05 16:22 27.51282 -82.62092 6967 ft 270 kts 219°
2026-05-05 16:23 27.48550 -82.64933 5586 ft 267 kts 224°
2026-05-05 16:23 27.47230 -82.66394 4887 ft 266 kts 224°
2026-05-05 16:23 27.44630 -82.69350 3388 ft 267 kts 224°
2026-05-05 16:24 27.43359 -82.70860 2833 ft 262 kts 232°
2026-05-05 16:24 27.42627 -82.72777 2953 ft 276 kts 260°
2026-05-05 16:24 27.43739 -82.76731 2995 ft 273 kts 317°
2026-05-05 16:25 27.45301 -82.77915 2818 ft 270 kts 342°
2026-05-05 16:25 27.48883 -82.77763 2330 ft 259 kts 30°
2026-05-05 16:25 27.50291 -82.76564 2092 ft 252 kts 52°
2026-05-05 16:26 27.51412 -82.72981 1994 ft 246 kts 94°
2026-05-05 16:26 27.50208 -82.69594 1983 ft 217 kts 122°
2026-05-05 16:27 27.49428 -82.68222 1984 ft 196 kts 122°
2026-05-05 16:27 27.48758 -82.67036 1983 ft 187 kts 122°
2026-05-05 16:27 27.48066 -82.65808 2009 ft 170 kts 122°
2026-05-05 16:27 27.47468 -82.64772 1979 ft 146 kts 126°
2026-05-05 16:28 27.46827 -82.63940 1818 ft 138 kts 131°
2026-05-05 16:28 27.46182 -82.63162 1652 ft 135 kts 132°
2026-05-05 16:28 27.45541 -82.62408 1481 ft 132 kts 131°
2026-05-05 16:28 27.44902 -82.61665 1312 ft 133 kts 131°
2026-05-05 16:29 27.44258 -82.60923 1143 ft 132 kts 131°
2026-05-05 16:29 27.43620 -82.60188 973 ft 131 kts 131°
2026-05-05 16:29 27.42983 -82.59456 808 ft 131 kts 131°
2026-05-05 16:29 27.42348 -82.58731 638 ft 130 kts 131°
2026-05-05 16:30 27.41715 -82.58006 438 ft 130 kts 131°
2026-05-05 16:30 27.41081 -82.57264 258 ft 133 kts 134°
2026-05-05 16:30 27.40430 -82.56529 116 ft 132 kts 134°
2026-05-05 16:30 27.39805 -82.55805 32 ft 119 kts 134°
2026-05-05 16:31 27.39130 -82.55044 196 ft 158 kts 134°
2026-05-05 16:31 27.38324 -82.54104 806 ft 171 kts 131°
2026-05-05 16:31 27.37411 -82.53194 1275 ft 180 kts 148°
2026-05-05 16:31 27.36186 -82.52803 1649 ft 193 kts 174°
2026-05-05 16:32 27.34830 -82.53071 1854 ft 211 kts 199°
2026-05-05 16:32 27.33643 -82.53985 1997 ft 207 kts 224°
2026-05-05 16:32 27.32947 -82.55371 2035 ft 203 kts 254°
2026-05-05 16:32 27.32935 -82.56954 2036 ft 204 kts 285°
2026-05-05 16:33 27.33557 -82.58293 2056 ft 202 kts 311°
2026-05-05 16:33 27.34526 -82.59421 2117 ft 199 kts 318°
2026-05-05 16:33 27.35545 -82.60488 2161 ft 201 kts 321°
2026-05-05 16:33 27.36552 -82.61490 2018 ft 187 kts 322°
2026-05-05 16:34 27.37527 -82.62397 1766 ft 177 kts 323°
2026-05-05 16:34 27.38452 -82.63263 1479 ft 169 kts 321°
2026-05-05 16:34 27.39314 -82.64116 1249 ft 160 kts 330°
2026-05-05 16:34 27.40300 -82.64439 1046 ft 143 kts 13°
2026-05-05 16:35 27.41170 -82.64024 945 ft 134 kts 44°
2026-05-05 16:35 27.41870 -82.63321 932 ft 140 kts 47°
2026-05-05 16:35 27.42565 -82.62502 942 ft 146 kts 57°
2026-05-05 16:35 27.42938 -82.61471 917 ft 142 kts 87°
2026-05-05 16:36 27.42873 -82.60385 860 ft 136 kts 98°
2026-05-05 16:36 27.42617 -82.59392 717 ft 135 kts 114°
2026-05-05 16:36 27.42125 -82.58515 588 ft 132 kts 124°
2026-05-05 16:36 27.41510 -82.57754 397 ft 130 kts 134°
2026-05-05 16:37 27.40862 -82.57021 232 ft 133 kts 134°
2026-05-05 16:37 27.40210 -82.56277 87 ft 133 kts 134°
2026-05-05 16:37 27.39582 -82.55562 31 ft 117 kts 134°
2026-05-05 16:37 27.39177 -82.55096 28 ft 42 kts 134°
2026-05-05 16:38 27.39121 -82.54958 29 ft 16 kts 80°
2026-05-05 16:38 27.39197 -82.54939 30 ft 12 kts 315°
2026-05-05 16:38 27.39255 -82.55004 30 ft 11 kts 316°
2026-05-05 16:38 27.39251 -82.55070 29 ft 10 kts 223°
2026-05-05 16:39 27.39199 -82.55127 28 ft 10 kts 224°
2026-05-05 16:39 27.39152 -82.55176 29 ft 8 kts 224°
2026-05-05 16:39 27.39133 -82.55224 30 ft 8 kts 250°
2026-05-05 16:39 27.39089 -82.55295 31 ft 13 kts 221°
2026-05-05 16:40 27.39036 -82.55345 29 ft 5 kts 220°
2026-05-05 16:40 27.39033 -82.55349 30 ft 0 kts 220°